Location: Stull Observatory
(42.2506°N, 77.7903°W)
Time: 14:45:15
(UTC-04:00)

Okean O Rocket - Visible Passes

Search period start: 21 May 2018 00:00
Search period end: 31 May 2018 00:00
Orbit: 622 x 646 km, 98.2° (Epoch: 20 May)

Date Brightness Start Highest point End Pass type
(mag) Time Alt. Az. Time Alt. Az. Time Alt. Az.
21 May 3.4 05:03:42 10° NNE 05:07:38 32° E 05:11:34 10° SSE visible
24 May 4.3 04:33:16 10° NE 04:35:51 15° E 04:38:24 10° SE visible
25 May 3.8 04:53:58 10° NE 04:57:37 25° E 05:01:15 10° SSE visible
28 May 4.5 04:24:11 10° ENE 04:25:46 12° E 04:27:22 10° ESE visible
29 May 4.2 04:44:20 10° NE 04:47:34 20° E 04:50:49 10° SE visible
